Flag for United Arab Emirates Weather past 2 weeks in Sharjah, Sharjah, United Arab Emirates

Now
99 °F

Clear.


Feels Like: 110 °F
Forecast: 87 / 100 °F
Wind: 10 mph from Northwest

Location: Sharjah International Airport

Current Time: Jul 6, 2015 at 5:58:34 PM

Latest Report: Jul 6, 2015 at 5:00 PM


Visibility: 4 mi

Pressure: 29.42 "Hg

Humidity: 44%

Dew point: 73 °F

Location of SharjahLocation

Historic Weather in Sharjah — Graph

°F

Sharjah temperature yesterday

Maximum temperature yesterday: 111 °F (at 11:00 AM)
Minimum temperature yesterday: 90 °F (at 4:00 AM)
Average temperature yesterday: 101 °F

Past Weeks' High & Low Weather Summary

 TemperatureHumidityPressure
High115 °F (Jul 3, 1:00 PM)94% (Jul 2, 1:00 AM)29.65 "Hg (Jul 2, 1:00 AM)
Low70 °F (Jul 2, 1:00 AM)11% (Jul 3, 1:00 PM)29.36 "Hg (Jun 21, 5:00 PM)
Average95 °F40%29.52 "Hg
* Reported Jun 21 5:00 PM — Jul 6 5:00 PM, Sharjah, Weather by CustomWeather, © 2015

Note: Actual official high and low records may vary slightly from our data, if they occured in-between our weather recording intervals... More about our weather records

Advertising

Sharjah weather history for previous 24 hours

 ConditionsComfort  
Time TempWeatherWind HumidityBarometerVisibility
5:00 PM
Mon, Jul 6
99 °FClear.10 mph44%29.42 "Hg4 mi
4:00 PM100 °FClear.6 mph42%29.42 "Hg4 mi
3:00 PM100 °FClear.9 mph40%29.45 "Hg4 mi
2:00 PM99 °FClear.13 mph44%29.45 "Hg5 mi
1:00 PM99 °FClear.12 mph50%29.47 "Hg5 mi
12:00 PM99 °FClear.12 mph47%29.50 "Hg5 mi
11:00 AM100 °FClear.7 mph42%29.50 "Hg5 mi
10:00 AM100 °FSunny.9 mph27%29.50 "Hg10 mi
9:00 AM97 °FSunny.12 mph37%29.50 "Hg10 mi
8:00 AM91 °FSunny.7 mph46%29.50 "Hg10 mi
7:00 AM90 °FSunny.8 mph46%29.50 "Hg10 mi
6:00 AM90 °FSunny.7 mph33%29.50 "Hg10 mi
5:00 AM90 °FHot.3 mph36%29.47 "HgN/A
3:00 AM88 °FClear.3 mph35%29.47 "Hg10 mi
2:00 AM88 °FClear.No wind35%29.47 "Hg10 mi
1:00 AM93 °FClear.3 mph30%29.47 "Hg10 mi
12:00 AM91 °FClear.3 mph34%29.50 "Hg10 mi
11:00 PM
Sun, Jul 5
93 °FClear.6 mph34%29.50 "Hg10 mi
10:00 PM93 °FClear.3 mph34%29.50 "Hg10 mi
9:00 PM93 °FClear.5 mph34%29.50 "Hg10 mi
8:00 PM97 °FClear.5 mph30%29.50 "Hg10 mi
7:00 PM102 °FSunny.5 mph26%29.50 "Hg10 mi
6:00 PM104 °FSunny.12 mph21%29.50 "Hg10 mi
5:00 PM108 °FSunny.16 mph16%29.50 "Hg10 mi
Weather by CustomWeather, © 2015

See weather overviewHow to use our weather pages